TimeMST,TemperatureF,Dew PointF,Humidity,Sea Level PressureIn,VisibilityMPH,Wind Direction,Wind SpeedMPH,Gust SpeedMPH,PrecipitationIn,Events,Conditions,WindDirDegrees,DateUTC
12:15 AM,42.8,-9.4,11,30.20,10.0,SSW,23.0,29.9,N/A,,Clear,210,2013-01-23 07:15:00
12:35 AM,41.0,-7.6,13,30.19,10.0,SSW,23.0,31.1,N/A,,Clear,210,2013-01-23 07:35:00
12:55 AM,41.0,-7.6,13,30.19,10.0,SSW,20.7,26.5,N/A,,Clear,210,2013-01-23 07:55:00
1:15 AM,39.2,-5.8,15,30.18,10.0,SSW,19.6,24.2,N/A,,Clear,200,2013-01-23 08:15:00
1:35 AM,41.0,-5.8,14,30.18,10.0,SSW,20.7,28.8,N/A,,Clear,200,2013-01-23 08:35:00
1:55 AM,39.2,-7.6,14,30.19,10.0,SSW,19.6,26.5,N/A,,Clear,200,2013-01-23 08:55:00
2:15 AM,37.4,-5.8,16,30.19,10.0,South,17.3,25.3,N/A,,Clear,190,2013-01-23 09:15:00
2:35 AM,37.4,-4.0,17,30.19,10.0,SSW,19.6,-,N/A,,Clear,200,2013-01-23 09:35:00
2:55 AM,39.2,-4.0,16,30.19,10.0,SSW,25.3,29.9,N/A,,Clear,210,2013-01-23 09:55:00
3:15 AM,41.0,-4.0,15,30.19,10.0,SSW,25.3,32.2,N/A,,Clear,210,2013-01-23 10:15:00
3:35 AM,42.8,-5.8,13,30.19,10.0,SSW,28.8,32.2,N/A,,Clear,210,2013-01-23 10:35:00
3:55 AM,41.0,-4.0,15,30.18,10.0,SSW,25.3,-,N/A,,Clear,200,2013-01-23 10:55:00
4:15 AM,39.2,-4.0,16,30.16,10.0,SSW,29.9,34.5,N/A,,Clear,210,2013-01-23 11:15:00
4:35 AM,39.2,-0.4,19,30.17,10.0,SSW,24.2,33.4,N/A,,Clear,210,2013-01-23 11:35:00
4:55 AM,39.2,-0.4,19,30.17,10.0,SSW,20.7,32.2,N/A,,Clear,200,2013-01-23 11:55:00
5:15 AM,35.6,-2.2,20,30.17,10.0,South,18.4,24.2,N/A,,Clear,190,2013-01-23 12:15:00
5:35 AM,35.6,-4.0,18,30.17,10.0,SSW,19.6,-,N/A,,Clear,200,2013-01-23 12:35:00
5:55 AM,35.6,-0.4,22,30.18,10.0,Calm,Calm,-,N/A,,Clear,0,2013-01-23 12:55:00
6:15 AM,39.2,-7.6,14,30.18,10.0,SW,9.2,-,N/A,,Clear,230,2013-01-23 13:15:00
6:35 AM,41.0,-9.4,12,30.19,10.0,SW,13.8,20.7,N/A,,Clear,230,2013-01-23 13:35:00
6:55 AM,39.2,-9.4,12,30.20,10.0,SW,12.7,-,N/A,,Clear,230,2013-01-23 13:55:00
7:15 AM,39.2,-7.6,14,30.20,10.0,SSW,16.1,-,N/A,,Clear,200,2013-01-23 14:15:00
7:35 AM,37.4,-5.8,16,30.20,10.0,SW,12.7,-,N/A,,Clear,220,2013-01-23 14:35:00
7:55 AM,39.2,-5.8,15,30.20,10.0,WSW,10.4,-,N/A,,Clear,240,2013-01-23 14:55:00
8:15 AM,39.2,-4.0,16,30.20,10.0,WSW,12.7,-,N/A,,Clear,250,2013-01-23 15:15:00
8:35 AM,41.0,-5.8,14,30.20,10.0,SW,11.5,-,N/A,,Clear,230,2013-01-23 15:35:00
8:55 AM,41.0,-7.6,13,30.20,10.0,WSW,12.7,-,N/A,,Clear,240,2013-01-23 15:55:00
9:15 AM,42.8,-9.4,11,30.20,10.0,SW,12.7,-,N/A,,Clear,230,2013-01-23 16:15:00
9:35 AM,41.0,-7.6,13,30.20,10.0,SW,11.5,-,N/A,,Clear,220,2013-01-23 16:35:00
9:55 AM,39.2,-5.8,15,30.21,10.0,South,8.1,16.1,N/A,,Clear,180,2013-01-23 16:55:00
10:15 AM,37.4,-5.8,16,30.20,10.0,South,10.4,-,N/A,,Clear,170,2013-01-23 17:15:00
10:35 AM,39.2,-5.8,15,30.21,10.0,South,11.5,17.3,N/A,,Clear,190,2013-01-23 17:35:00
10:55 AM,39.2,-5.8,15,30.21,10.0,South,11.5,-,N/A,,Clear,190,2013-01-23 17:55:00
11:15 AM,37.4,-4.0,17,30.21,10.0,South,11.5,-,N/A,,Clear,170,2013-01-23 18:15:00
11:35 AM,41.0,-4.0,15,30.22,10.0,South,16.1,-,N/A,,Clear,190,2013-01-23 18:35:00
11:55 AM,42.8,1.4,18,30.21,10.0,South,16.1,20.7,N/A,,Clear,190,2013-01-23 18:55:00
12:15 PM,41.0,-2.2,16,30.20,10.0,South,13.8,-,N/A,,Clear,190,2013-01-23 19:15:00
12:35 PM,41.0,1.4,19,30.18,10.0,South,12.7,18.4,N/A,,Clear,190,2013-01-23 19:35:00
12:55 PM,42.8,-0.4,16,30.18,10.0,SSW,17.3,-,N/A,,Clear,210,2013-01-23 19:55:00
1:15 PM,42.8,-0.4,16,30.18,10.0,SW,13.8,-,N/A,,Clear,230,2013-01-23 20:15:00
1:35 PM,42.8,1.4,18,30.18,10.0,SSE,3.5,-,N/A,,Clear,150,2013-01-23 20:35:00
1:55 PM,42.8,-2.2,15,30.17,10.0,SW,17.3,24.2,N/A,,Clear,220,2013-01-23 20:55:00
2:15 PM,35.6,-2.2,20,30.17,10.0,SSE,8.1,-,N/A,,Clear,150,2013-01-23 21:15:00
2:35 PM,39.2,-5.8,15,30.16,10.0,SE,8.1,-,N/A,,Clear,140,2013-01-23 21:35:00
2:55 PM,35.6,-4.0,18,30.18,10.0,SE,8.1,-,N/A,,Clear,140,2013-01-23 21:55:00
3:15 PM,39.2,-7.6,14,30.17,10.0,SE,10.4,-,N/A,,Clear,130,2013-01-23 22:15:00
3:35 PM,39.2,-5.8,15,30.17,10.0,SSE,8.1,-,N/A,,Clear,150,2013-01-23 22:35:00
3:55 PM,39.2,-5.8,15,30.16,10.0,SE,6.9,-,N/A,,Clear,140,2013-01-23 22:55:00
4:15 PM,41.0,-4.0,15,30.17,10.0,SE,5.8,-,N/A,,Clear,140,2013-01-23 23:15:00
4:35 PM,41.0,-5.8,14,30.16,10.0,SE,5.8,-,N/A,,Clear,140,2013-01-23 23:35:00
4:55 PM,39.2,-4.0,16,30.17,10.0,South,8.1,-,N/A,,Clear,170,2013-01-23 23:55:00
5:15 PM,41.0,-2.2,16,30.16,10.0,SSE,10.4,-,N/A,,Clear,160,2013-01-24 00:15:00
5:35 PM,37.4,-0.4,20,30.15,10.0,SE,13.8,-,N/A,,Clear,130,2013-01-24 00:35:00
5:55 PM,33.8,3.2,28,30.15,10.0,SE,13.8,21.9,N/A,,Clear,140,2013-01-24 00:55:00
6:15 PM,33.8,5.0,30,30.15,10.0,SE,11.5,-,N/A,,Clear,140,2013-01-24 01:15:00
6:35 PM,35.6,3.2,26,30.16,10.0,SE,9.2,-,N/A,,Clear,140,2013-01-24 01:35:00
6:55 PM,37.4,-0.4,20,30.16,10.0,SSW,9.2,-,N/A,,Clear,210,2013-01-24 01:55:00
7:15 PM,41.0,-2.2,16,30.16,10.0,SSW,10.4,-,N/A,,Clear,200,2013-01-24 02:15:00
7:35 PM,41.0,-0.4,18,30.16,10.0,SW,12.7,19.6,N/A,,Clear,220,2013-01-24 02:35:00
7:55 PM,41.0,-0.4,18,30.16,10.0,SSW,8.1,24.2,N/A,,Clear,210,2013-01-24 02:55:00
8:15 PM,39.2,1.4,21,30.16,10.0,SSW,17.3,-,N/A,,Clear,210,2013-01-24 03:15:00
8:35 PM,39.2,3.2,22,30.16,10.0,SW,11.5,-,N/A,,Clear,230,2013-01-24 03:35:00
8:55 PM,39.2,3.2,22,30.15,10.0,SW,16.1,21.9,N/A,,Clear,220,2013-01-24 03:55:00
9:15 PM,37.4,5.0,26,30.15,10.0,SSW,21.9,29.9,N/A,,Clear,210,2013-01-24 04:15:00
9:35 PM,39.2,5.0,24,30.12,10.0,SSW,26.5,32.2,N/A,,Clear,210,2013-01-24 04:35:00
9:55 PM,39.2,3.2,22,30.13,10.0,SSW,19.6,-,N/A,,Clear,200,2013-01-24 04:55:00
10:15 PM,39.2,1.4,21,30.13,10.0,SSW,17.3,-,N/A,,Clear,200,2013-01-24 05:15:00
10:35 PM,37.4,1.4,22,30.14,10.0,South,10.4,23.0,N/A,,Clear,180,2013-01-24 05:35:00
10:55 PM,35.6,5.0,28,30.13,10.0,SSE,12.7,-,N/A,,Clear,150,2013-01-24 05:55:00
11:15 PM,33.8,6.8,32,30.13,10.0,SSE,15.0,19.6,N/A,,Clear,160,2013-01-24 06:15:00
11:35 PM,37.4,5.0,26,30.12,10.0,South,19.6,29.9,N/A,,Clear,170,2013-01-24 06:35:00
11:55 PM,35.6,5.0,28,30.12,10.0,South,19.6,25.3,N/A,,Clear,180,2013-01-24 06:55:00